Find Starlink 11085

NORAD ID: 59425 Int'l Des: 2024-065 Owner: SPXS Country: US Constellation: starlink operational
LEOCIRCULAR

实时位置

正在加载3D地球...

关于 Starlink 11085

正在加载描述...

即将过境

Passes for default location (London). Set your location on the main map for personalized predictions.

高度历史

Loading altitude history...

两行轨道根数

1 59425U 24065E 26126.49712262 -.00001676 00000-0 -89896-5 0 9999
2 59425 53.1593 168.8243 0000736 92.7429 267.3673 15.69696276120558
Epoch: May 6, 2026 • Age: 16 hours

当前状态

高度 361.5 km
速度 7.69 km/s
星下点 -4.95°S, 64.19°E
发射日期 Apr 7, 2024
运行时间 2 years
类型 internet

技术详情

分类 Payload
质量 960.00 kg
干质量 910.00 kg
总质量 960.00 kg
长度 0.30 m
直径 4.10 m
跨度 29.00 m
形状 Box + pan
制造商 SPXS
平台类型 Starlink V2MD
阶段状态 In Orbit
所有者/国家 SPXS/US

Most Searched